Observations for Trim Market St
| Time | AQI | Temp °C | Hum % | Pres Pa | CO μg/m³ | H₂S μg/m³ | NO μg/m³ | NO₂ μg/m³ | O₃ μg/m³ | SO₂ μg/m³ | PM1 μg/m³ | PM2.5 μg/m³ | PM10 μg/m³ |
|---|---|---|---|---|---|---|---|---|---|---|---|---|---|
| Tuesday 11 August 2026 | |||||||||||||
| 15:28 | 2 | 40.7 | 17 | 67,092 | 0 | 15.56 | 0.02 | 26.12 | 78.01 | 5.56 | 0 | 3.86 | 4.24 |
| 15:27 | 2 | 40.7 | 17 | 67,130 | 0 | 4.28 | 0.02 | 15.09 | 78.54 | 7.55 | 0 | 3.29 | 3.62 |
| 15:26 | 2 | 40.6 | 17 | 67,155 | 0 | 21.25 | 0.04 | 19.32 | 89.36 | 6.99 | 0.71 | 4.42 | 4.86 |
| 15:25 | 2 | 40.6 | 17 | 67,133 | 0 | 10.95 | 0.04 | 16.54 | 82.06 | 6.25 | 0.71 | 4.42 | 4.86 |
| 15:24 | 2 | 40.6 | 17 | 67,132 | 0 | 14.24 | 0.07 | 17.2 | 94.48 | 7.18 | 1.43 | 4.99 | 5.49 |
| 15:22 | 2 | 40.4 | 17 | 67,130 | 0 | 10.84 | 0.07 | 15.66 | 78.61 | 7.47 | 0 | 3.86 | 4.24 |
| 15:20 | 2 | 40.3 | 17 | 67,128 | 0 | 16.61 | 0.05 | 16.88 | 73.19 | 7.05 | 0 | 3.86 | 4.24 |
| 15:16 | 2 | 40.2 | 17 | 67,132 | 0 | 37.54 | 0.1 | 25.05 | 92.64 | 7.94 | 0.71 | 4.44 | 4.88 |
| 15:12 | 2 | 40.9 | 16 | 67,204 | 0 | 15.69 | 0 | 16.06 | 92.14 | 8.08 | 1.43 | 5.04 | 5.54 |
| 15:09 | 2 | 41.5 | 16 | 67,282 | 0 | 0 | 0 | 15.48 | 100.49 | 9.11 | 0 | 4.49 | 4.94 |
| 15:08 | 2 | 41.8 | 16 | 67,316 | 0 | 5.48 | 0 | 15.54 | 105.44 | 8.06 | 0 | 3.36 | 3.7 |
| 15:01 | 2 | 43.1 | 15 | 67,424 | 0 | 0 | 0 | 15.47 | 119.19 | 8.42 | 0.71 | 4.53 | 4.98 |
| 15:00 | 2 | 43.2 | 15 | 67,442 | 0 | 0 | 0 | 14.34 | 103.13 | 9.94 | 0.71 | 3.95 | 4.35 |
| 14:59 | 2 | 43.3 | 15 | 67,432 | 0 | 0 | 0 | 15.26 | 94.77 | 8.9 | 0 | 3.94 | 4.33 |
| 14:58 | 2 | 43.2 | 16 | 67,446 | 0 | 0 | 0 | 15.19 | 101.1 | 8.92 | 0 | 3.93 | 4.32 |
| 14:57 | 2 | 43.2 | 16 | 67,434 | 0 | 0 | 0 | 15.02 | 91.46 | 8.3 | 0.71 | 4.49 | 4.94 |
| 14:56 | 2 | 43.2 | 16 | 67,444 | 0 | 0 | 0 | 15.03 | 94.35 | 8.39 | 0 | 3.92 | 4.32 |
| 14:55 | 2 | 43.2 | 16 | 67,428 | 0 | 0 | 0 | 14.97 | 129.8 | 7.7 | 0.71 | 4.47 | 4.92 |
| 14:54 | 2 | 43.3 | 16 | 67,442 | 0 | 0 | 0 | 15.27 | 110.77 | 9.09 | 0 | 3.93 | 4.32 |
| 14:53 | 2 | 43.3 | 15 | 67,457 | 0 | 0 | 0 | 16.35 | 98.08 | 7.05 | 1.43 | 4.5 | 4.95 |